[[{"header":{"parameterUnit":"m.s-1","parameterCategory":1,"la1":30.2991,"la2":30.254,"lo1":-89.0895,"lo2":-89.0444,"dy":0.0017,"dx":0.0017,"nx":28,"ny":28,"refTime":"2025-08-16T09:00:00:Z","depth":0,"parameterNumber":2,"parameterNumberName":"U-component_of_WINDS"},"data":[0,0,0,0,0,0,0,0,0,0,0,0,0,0,0,0,0,0,0,0,0,0,0,0,0,0,0,0,0,0,0,0,0,0,0,0,0,0,0,0,0,0,0,0,0,0,0,0,0,0,0,0,0,0,0,0,0,0,-0.2038,-0.2038,0,-0.2005,-0.2005,-0.2005,-0.2036,-0.2037,-0.2038,-0.2039,-0.2004,-0.2002,-0.2,0,0,0,0,0,0,0,0,0,0,0,0,0,-0.2125,-0.2123,-0.2038,-0.2038,-0.2037,-0.2006,-0.2005,-0.2005,-0.2036,-0.2037,-0.2039,-0.204,-0.2004,-0.2002,-0.1999,0,0,0,0,0,0,0,0,0,0,0,0,0,-0.2089,-0.2123,-0.2038,-0.2049,-0.2049,-0.2006,-0.2005,-0.2005,-0.2035,-0.2037,-0.2039,-0.2041,-0.2005,-0.2002,-0.1999,-0.1942,0,0,-0.1989,-0.1988,0,0,0,0,0,0,0,0,-0.2091,-0.2086,-0.2048,-0.2048,-0.2049,-0.2027,-0.2023,-0.1984,-0.2035,-0.2041,-0.2039,-0.2042,-0.201,-0.2006,-0.1996,-0.1941,-0.1939,-0.1989,-0.1987,-0.1986,-0.1985,0,0,0,0,0,0,0,-0.2094,-0.2088,-0.2025,-0.2047,-0.2048,-0.2055,-0.2052,-0.2015,-0.2015,-0.204,-0.2042,-0.2038,-0.201,-0.1999,-0.1995,-0.1939,-0.1989,-0.1986,-0.1984,-0.1983,-0.1835,-0.1833,0,0,0,0,0,0,-0.2095,-0.2089,-0.2026,-0.2024,-0.2075,-0.2052,-0.2048,-0.2032,-0.2015,-0.2015,-0.2037,-0.204,-0.2003,-0.1999,-0.1994,-0.1927,-0.1986,-0.1983,-0.1981,-0.1837,-0.1835,-0.1833,0,0,0,0,0,0,-0.2097,-0.2089,-0.2027,-0.2057,-0.205,-0.2048,-0.2029,-0.203,-0.2019,-0.2013,-0.2013,-0.2025,-0.2005,-0.1999,-0.1955,-0.1926,-0.1982,-0.1979,-0.184,-0.1837,-0.1834,-0.1791,0,0,0,0,0,0,-0.2099,-0.209,-0.2069,-0.2057,-0.2048,-0.1989,-0.2028,-0.2028,-0.2014,-0.2017,-0.2002,-0.2001,-0.2006,-0.196,-0.1952,-0.1923,-0.1976,-0.1842,-0.1838,-0.1835,-0.1795,-0.1787,-0.178,0,0,0,0,0,-0.2102,-0.2057,-0.2067,-0.2059,-0.2022,-0.1987,-0.1983,-0.1989,-0.2011,-0.1989,-0.1986,-0.2002,-0.1931,-0.1955,-0.1947,-0.1916,-0.1844,-0.1839,-0.1835,-0.1799,-0.1789,-0.178,0,0,0,0,0,0,-0.2065,-0.2056,-0.2067,-0.2017,-0.2003,-0.1993,-0.1966,-0.1979,-0.1957,-0.1962,-0.197,-0.1967,-0.1921,-0.1914,-0.1941,-0.186,-0.1891,-0.1884,-0.1866,-0.1857,-0.1849,-0.1851,-0.1974,0,0,0,0,0,-0.2051,-0.2024,-0.2018,-0.1974,-0.1967,-0.1967,-0.1952,-0.1959,-0.1945,-0.1938,-0.1932,-0.1916,-0.1891,-0.1873,-0.1849,-0.1795,-0.1792,-0.1769,-0.1762,-0.1756,-0.175,-0.1721,-0.1711,-0.1818,-0.1818,-0.1818,0,0,-0.2021,-0.2013,-0.1996,-0.1966,-0.1956,-0.1928,-0.1962,-0.1931,-0.191,-0.1933,-0.1892,-0.1887,-0.187,-0.1821,-0.1799,-0.1814,-0.172,-0.175,-0.1745,-0.1742,-0.1715,-0.1705,-0.1696,-0.1814,-0.1815,-0.1816,0,0,-0.1953,-0.1944,-0.1907,-0.1896,-0.1881,-0.1882,-0.1873,-0.1861,-0.1859,-0.1818,-0.1835,-0.181,-0.1766,-0.1754,-0.1741,-0.1669,-0.1683,-0.1661,-0.1622,-0.1593,-0.1585,-0.1577,-0.1551,-0.1542,-0.1656,-0.1656,-0.1655,0,-0.1917,-0.1876,-0.1886,-0.1853,-0.184,-0.1862,-0.1824,-0.1813,-0.179,-0.178,-0.1798,-0.1743,-0.1733,-0.1681,-0.1664,-0.1653,-0.1643,-0.1663,-0.1585,-0.1578,-0.1571,-0.1547,-0.1537,-0.1653,-0.1653,-0.1653,-0.1654,0,-0.1834,-0.1805,-0.1777,-0.1755,-0.1739,-0.1704,-0.1707,-0.1689,-0.1698,-0.1697,-0.1654,-0.1644,-0.1618,-0.1607,-0.1614,-0.1556,-0.1566,-0.1584,-0.1615,-0.1558,-0.1535,-0.1526,-0.1649,-0.165,-0.1651,-0.1652,0,0,-0.174,-0.1725,-0.1714,-0.1705,-0.169,-0.1668,-0.1634,-0.161,-0.1594,-0.1578,-0.1549,-0.1512,-0.1529,-0.1515,-0.1521,-0.1496,-0.144,-0.1518,-0.1517,-0.1503,-0.1375,-0.1361,-0.135,-0.145,-0.1448,-0.1446,-0.1377,0,-0.1671,-0.1612,-0.162,-0.1564,-0.1538,-0.1558,-0.1528,-0.1516,-0.1514,-0.1491,-0.1489,-0.1462,-0.1487,-0.1479,-0.1455,-0.1452,-0.1414,-0.1457,-0.1422,-0.1421,-0.1425,-0.1338,-0.1323,-0.1258,-0.1368,-0.1366,-0.1365,0,-0.1582,-0.1564,-0.1505,-0.1495,-0.1484,-0.1457,-0.1436,-0.1414,-0.14,-0.1401,-0.1386,-0.1397,-0.1363,-0.1395,-0.1348,-0.1377,-0.1363,-0.1359,-0.1357,-0.1353,-0.1389,-0.1332,-0.1237,-0.1227,-0.1351,-0.1352,-0.1353,0,-0.1519,-0.148,-0.144,-0.1431,-0.1418,-0.1399,-0.1393,-0.1381,-0.1366,-0.1347,-0.1338,-0.1315,-0.1303,-0.1285,-0.1289,-0.1312,-0.1241,-0.1273,-0.124,-0.1239,-0.1223,-0.1224,-0.1124,-0.1215,-0.1215,-0.1215,-0.1216,0,-0.1441,-0.1404,-0.1411,-0.1386,-0.1346,-0.1355,-0.1315,-0.1311,-0.13,-0.1275,-0.1291,-0.1267,-0.1275,-0.125,-0.1254,-0.1214,-0.1208,-0.1207,-0.1209,-0.1205,-0.1206,-0.1196,-0.1201,-0.1213,-0.1213,-0.1214,-0.1214,0,-0.1363,-0.1366,-0.1324,-0.1316,-0.1313,-0.1283,-0.1276,-0.1253,-0.1253,-0.122,-0.1213,-0.1213,-0.1186,-0.1189,-0.1158,-0.116,-0.1111,-0.1118,-0.1116,-0.1117,-0.1083,-0.1086,-0.0974,-0.0959,-0.106,-0.1059,-0.1058,0,-0.1312,-0.1285,-0.1274,-0.1259,-0.1251,-0.1226,-0.1211,-0.122,-0.1203,-0.1186,-0.1165,-0.1139,-0.1119,-0.1074,-0.1071,-0.1048,-0.1054,-0.1016,-0.1051,-0.1049,-0.1053,-0.1054,-0.1052,-0.1009,-0.1008,-0.1007,-0.1006,0,-0.1222,-0.1226,-0.1204,-0.1183,-0.1165,-0.1149,-0.1135,-0.1121,-0.1128,-0.1109,-0.1082,-0.1066,-0.1035,-0.101,-0.0988,-0.0981,-0.0994,-0.0996,-0.0987,-0.0983,-0.0983,-0.0982,-0.1097,-0.0998,-0.0999,-0.1,-0.1,-0.1,-0.1156,-0.1133,-0.1122,-0.1097,-0.1087,-0.1074,-0.1051,-0.1049,-0.1027,-0.1003,-0.1009,-0.0978,-0.0966,-0.0938,-0.0929,-0.0905,-0.0918,-0.0905,-0.0902,-0.0898,-0.0894,-0.0987,-0.0901,-0.0901,-0.0901,-0.0902,-0.0902,0,-0.1067,-0.1061,-0.1038,-0.1018,-0.0999,-0.1015,-0.0999,-0.0982,-0.0955,-0.0942,-0.0923,-0.0892,-0.0867,-0.0862,-0.0839,-0.082,-0.0826,-0.0814,-0.0815,-0.0813,-0.0884,-0.0894,-0.081,-0.081,-0.081,-0.081,-0.081,-0.081,-0.1018,-0.0979,-0.0981,-0.0937,-0.0932,-0.0902,-0.0892,-0.0879,-0.087,-0.0834,-0.0814,-0.0812,-0.0802,-0.0779,-0.0757,-0.0756,-0.0746,-0.0732,-0.0733,-0.0799,-0.0808,-0.0817,-0.0826,-0.073,-0.0729,-0.0665,-0.0664,-0.0664]},{"header":{"parameterUnit":"m.s-1","parameterCategory":1,"la1":30.2991,"la2":30.254,"lo1":-89.0895,"lo2":-89.0444,"dy":0.0017,"dx":0.0017,"nx":28,"ny":28,"refTime":"2025-08-16T09:00:00:Z","depth":0,"parameterNumber":3,"parameterNumberName":"V-component_of_WINDS"},"data":[0,0,0,0,0,0,0,0,0,0,0,0,0,0,0,0,0,0,0,0,0,0,0,0,0,0,0,0,0,0,0,0,0,0,0,0,0,0,0,0,0,0,0,0,0,0,0,0,0,0,0,0,0,0,0,0,0,0,-0.1008,-0.1008,0,-0.0995,-0.0995,-0.0995,-0.0993,-0.0993,-0.0993,-0.0993,-0.0982,-0.0981,-0.0981,0,0,0,0,0,0,0,0,0,0,0,0,0,-0.1035,-0.1035,-0.1008,-0.1008,-0.1008,-0.0995,-0.0995,-0.0995,-0.0993,-0.0993,-0.0993,-0.0993,-0.0982,-0.0981,-0.0981,0,0,0,0,0,0,0,0,0,0,0,0,0,-0.1023,-0.1035,-0.1008,-0.1005,-0.1005,-0.0995,-0.0995,-0.0995,-0.0993,-0.0993,-0.0993,-0.0993,-0.0982,-0.0981,-0.0981,-0.0974,0,0,-0.0979,-0.0979,0,0,0,0,0,0,0,0,-0.1024,-0.1022,-0.1006,-0.1005,-0.1005,-0.0996,-0.1001,-0.0988,-0.0993,-0.0997,-0.0993,-0.0993,-0.0986,-0.0985,-0.0983,-0.0974,-0.0973,-0.0979,-0.0979,-0.0978,-0.0978,0,0,0,0,0,0,0,-0.1025,-0.1023,-0.1003,-0.1006,-0.1005,-0.1006,-0.1004,-0.0998,-0.0991,-0.0997,-0.0997,-0.0995,-0.0986,-0.0983,-0.0982,-0.0973,-0.0979,-0.0978,-0.0978,-0.0978,-0.0962,-0.0962,0,0,0,0,0,0,-0.1026,-0.1023,-0.1004,-0.1003,-0.1015,-0.1005,-0.1004,-0.0999,-0.0991,-0.099,-0.0995,-0.0995,-0.0984,-0.0983,-0.0982,-0.0976,-0.0978,-0.0978,-0.0977,-0.0962,-0.0962,-0.0962,0,0,0,0,0,0,-0.1026,-0.1024,-0.1004,-0.1013,-0.1011,-0.1005,-0.0999,-0.0998,-0.0995,-0.099,-0.0989,-0.0993,-0.0984,-0.0983,-0.0977,-0.0976,-0.0977,-0.0977,-0.0962,-0.0962,-0.0962,-0.0963,0,0,0,0,0,0,-0.1027,-0.1024,-0.102,-0.1013,-0.101,-0.0998,-0.0999,-0.0998,-0.0994,-0.0994,-0.0988,-0.0987,-0.0984,-0.0978,-0.0976,-0.0975,-0.0976,-0.0962,-0.0962,-0.0962,-0.0963,-0.0963,-0.0963,0,0,0,0,0,-0.1028,-0.102,-0.102,-0.1017,-0.1005,-0.0998,-0.0996,-0.0993,-0.0994,-0.0991,-0.0988,-0.0987,-0.0976,-0.0977,-0.0976,-0.0974,-0.0962,-0.0962,-0.0962,-0.0963,-0.0963,-0.0963,0,0,0,0,0,0,-0.1027,-0.1019,-0.1018,-0.1008,-0.1004,-0.0997,-0.0993,-0.0992,-0.0988,-0.0988,-0.0985,-0.0983,-0.0978,-0.0975,-0.0977,-0.0969,-0.097,-0.0969,-0.0971,-0.0971,-0.0971,-0.0972,-0.0976,0,0,0,0,0,-0.1026,-0.1019,-0.1013,-0.1005,-0.1003,-0.0999,-0.0995,-0.0993,-0.0989,-0.0987,-0.0983,-0.098,-0.0976,-0.0973,-0.0969,-0.0963,-0.0963,-0.0962,-0.0962,-0.0962,-0.0961,-0.0962,-0.0962,-0.0962,-0.0962,-0.0962,0,0,-0.1023,-0.1018,-0.1014,-0.1005,-0.1001,-0.0997,-0.0997,-0.0991,-0.0988,-0.0986,-0.0981,-0.0979,-0.0975,-0.097,-0.0967,-0.0967,-0.0962,-0.0961,-0.0961,-0.0961,-0.0961,-0.0961,-0.0961,-0.0962,-0.0962,-0.0962,0,0,-0.1015,-0.101,-0.1004,-0.1001,-0.0995,-0.0993,-0.0992,-0.0987,-0.0985,-0.098,-0.0979,-0.0977,-0.0969,-0.0967,-0.0965,-0.0962,-0.0962,-0.0961,-0.096,-0.096,-0.096,-0.096,-0.0961,-0.0962,-0.096,-0.096,-0.096,0,-0.1012,-0.1004,-0.1001,-0.0996,-0.0994,-0.0992,-0.0988,-0.0985,-0.0979,-0.0978,-0.0978,-0.0971,-0.0968,-0.0964,-0.0964,-0.0962,-0.0962,-0.0961,-0.096,-0.0961,-0.0961,-0.0961,-0.0962,-0.096,-0.096,-0.096,-0.096,0,-0.1002,-0.0997,-0.0993,-0.0988,-0.0985,-0.098,-0.0978,-0.0976,-0.0976,-0.0974,-0.0971,-0.0968,-0.0965,-0.0964,-0.0962,-0.0961,-0.0961,-0.0961,-0.0961,-0.0961,-0.0962,-0.0962,-0.096,-0.096,-0.096,-0.096,0,0,-0.0991,-0.0987,-0.0986,-0.0985,-0.0981,-0.0978,-0.0975,-0.0972,-0.0971,-0.0968,-0.0967,-0.0962,-0.0963,-0.0961,-0.096,-0.096,-0.0961,-0.0961,-0.0961,-0.0962,-0.0962,-0.0963,-0.0964,-0.0961,-0.0961,-0.0961,-0.0964,0,-0.0985,-0.0978,-0.0977,-0.0972,-0.0969,-0.097,-0.0968,-0.0966,-0.0966,-0.0964,-0.0964,-0.0962,-0.0962,-0.0961,-0.0961,-0.0961,-0.0961,-0.0961,-0.0962,-0.0962,-0.0964,-0.0964,-0.0964,-0.0966,-0.0964,-0.0964,-0.0964,0,-0.0976,-0.0974,-0.0968,-0.0968,-0.0967,-0.0965,-0.0964,-0.0962,-0.0961,-0.0961,-0.0961,-0.0961,-0.096,-0.0961,-0.0961,-0.0961,-0.0962,-0.0962,-0.0962,-0.0963,-0.0963,-0.0966,-0.0966,-0.0967,-0.0964,-0.0964,-0.0964,0,-0.0972,-0.0967,-0.0964,-0.0963,-0.0962,-0.0961,-0.0961,-0.0961,-0.096,-0.096,-0.096,-0.096,-0.096,-0.0961,-0.0962,-0.0962,-0.0963,-0.0963,-0.0965,-0.0965,-0.0965,-0.0965,-0.0967,-0.0964,-0.0964,-0.0964,-0.0964,0,-0.0965,-0.0962,-0.0963,-0.0961,-0.096,-0.096,-0.0958,-0.0958,-0.0959,-0.0959,-0.0959,-0.0959,-0.096,-0.0961,-0.0962,-0.0964,-0.0963,-0.0965,-0.0965,-0.0965,-0.0965,-0.0966,-0.0966,-0.0964,-0.0964,-0.0964,-0.0964,0,-0.0959,-0.0959,-0.0957,-0.0957,-0.0957,-0.0956,-0.0957,-0.0957,-0.0958,-0.0958,-0.0958,-0.0959,-0.0961,-0.0962,-0.0963,-0.0964,-0.0967,-0.0967,-0.0967,-0.0967,-0.097,-0.097,-0.0973,-0.0974,-0.0969,-0.0969,-0.0969,0,-0.0955,-0.0954,-0.0955,-0.0955,-0.0955,-0.0954,-0.0955,-0.0956,-0.0956,-0.0958,-0.0958,-0.096,-0.0961,-0.0964,-0.0966,-0.0968,-0.0969,-0.097,-0.0969,-0.097,-0.0971,-0.0972,-0.0973,-0.097,-0.097,-0.097,-0.097,0,-0.095,-0.0951,-0.095,-0.0951,-0.0952,-0.0953,-0.0953,-0.0954,-0.0956,-0.0956,-0.0958,-0.0959,-0.0963,-0.0965,-0.0968,-0.097,-0.0971,-0.097,-0.0971,-0.0972,-0.0973,-0.0974,-0.0969,-0.097,-0.097,-0.097,-0.097,-0.097,-0.0946,-0.0946,-0.0947,-0.0948,-0.0949,-0.0951,-0.0952,-0.0953,-0.0955,-0.0957,-0.0958,-0.0961,-0.0964,-0.0968,-0.097,-0.0973,-0.0973,-0.0974,-0.0975,-0.0975,-0.0976,-0.0972,-0.0974,-0.0974,-0.0974,-0.0974,-0.0974,0,-0.0942,-0.0944,-0.0944,-0.0947,-0.0948,-0.0949,-0.0951,-0.0953,-0.0955,-0.0958,-0.096,-0.0964,-0.0967,-0.097,-0.0974,-0.0977,-0.0978,-0.0978,-0.0978,-0.0979,-0.0975,-0.0974,-0.0977,-0.0977,-0.0977,-0.0977,-0.0977,-0.0977,-0.094,-0.0941,-0.0943,-0.0945,-0.0947,-0.095,-0.0951,-0.0954,-0.0956,-0.096,-0.0963,-0.0965,-0.0969,-0.0974,-0.0978,-0.0979,-0.0981,-0.0982,-0.0983,-0.0979,-0.0979,-0.0979,-0.0978,-0.0982,-0.0982,-0.0987,-0.0988,-0.0988]}]]